Погода в Ляочэне

Китай     36°27′23″N   115°58′55″E
темп.,
°C
ветер,
м/с
пор.,
м/с
влажн.,
%
обл.,
%
осадки,
мм/ч
давл.,
гПа
погр.,
м
8 августа, пн
пн823:00+29ю388248 0.0 1001177
02:00+28ю3783100 0.0 1001177
05:00+27ююв238887 0.0 100271
08:00+30ююв2280100 0.0 1004310
11:00+29св4689100 8.1 1004305
14:00+27св5996100 11.4 1004362
17:00+26св61096100 0.4 1004374
20:00+25св61196100 0.6 1005368
9 августа, вт
вт923:00+24ссв5997100 1.8 1006398
02:00+24с4798100 6.5 1005359
05:00+23с4795100 1.1 1005299
08:00+23с5994100 2.6 1006375
11:00+22с61086100 0.6 1007476
14:00+21ссв61280100 0.8 1007610
17:00+21ссв71286100 0.0 1007785
20:00+20ссв61179100 0.0 1008582
10 августа, ср
ср1023:00+20с5982100 0.0 1008461
02:00+19с5895100 0.4 1008360
05:00+19с4797100 0.6 1007344
08:00+20ссв4896100 0.8 1008391
11:00+22ссв4592100 0.3 1008483
14:00+25св227976 0.3 1006744
17:00+26ссв2277100 0.0 1005723
20:00+24всв118493 0.0 100611
11 августа, чт
чт1123:00+23юв1191100 0.0 100611
02:00+23вюв1190100 0.0 100511
05:00+22в2295100 0.8 100542
08:00+23юв2299100 7.8 1005112
11:00+26ю2387100 0.5 1005370
14:00+25в1192100 0.6 100552
17:00+28юв2386100 0.0 1003306
20:00+26в2294100 0.0 100320
12 августа, пт
пт1223:00+26в3395100 1.6 100351
02:00+25юв249851 9.8 1003103
05:00+25ю389774 7.6 1002192
08:00+27ю24945 8.8 1003196
11:00+32ююз57705 0.0 1003901
14:00+34юз576452 0.0 10011392
17:00+33ююз47710 0.1 1000460
20:00+29ююв49845 0.3 1001167